User: anonymous   Login
Location: Zlin
(49.2330°N, 17.6670°E)
Time: 06:55:49
(UTC+02:00)
Language:

ISS - Orbit

View from above orbital plane
View from above orbital plane
View from above satellite
View from above satellite

Ground track
Ground track

The orbit data is extracted from the following two-line orbital elements,

1 25544U 98067A   16238.96778683  .00006394  00000-0  10300-3 0  9993
2 25544  51.6447  69.8230 0003005 237.7530 274.3566 15.54328087 15846
Epoch (UTC): 25 August 2016 23:13:36
Eccentricity: 0.0003005
inclination: 51.6447°
perigee height: 402 km
apogee height: 406 km
right ascension of ascending node: 69.8230°
argument of perigee: 237.7530°
revolutions per day: 15.54328087
mean anomaly at epoch: 274.3566°
orbit number at epoch: 1584

The dashed part of the orbit path shows where the satellite is in the earth's shadow,  

DLR